| time (UTC) | temp F | wind direction | speed knots | gust knots | rain 1hr in | rain 24hr in | rain mn in | humidity % | barometer mb |
| 20260507200015 | 51 | 169 | 1.7 | 4.3 | 0.00 | 0.22 | 0.22 | 92 | 1008.6 |
| 20260507194522 | 51 | 154 | 0.0 | 1.7 | 0.00 | 0.22 | 0.22 | 92 | 1008.5 |
| 20260507193017 | 51 | 154 | 0.9 | 4.3 | 0.00 | 0.22 | 0.22 | 91 | 1008.3 |
| 20260507191512 | 51 | 92 | 0.9 | 2.6 | 0.00 | 0.22 | 0.22 | 91 | 1007.9 |
| 20260507190012 | 51 | 319 | 0.9 | 1.7 | 0.00 | 0.22 | 0.22 | 90 | 1007.5 |
| 20260507184504 | 51 | 312 | 0.0 | 3.5 | 0.08 | 0.22 | 0.22 | 90 | 1007.1 |
| 20260507183005 | 51 | 87 | 0.9 | 2.6 | 0.08 | 0.22 | 0.22 | 89 | 1006.8 |
| 20260507181600 | 51 | 360 | 1.7 | 7.8 | 0.11 | 0.22 | 0.22 | 87 | 1006.6 |
| 20260507180059 | 51 | 21 | 4.3 | 11.3 | 0.20 | 0.22 | 0.22 | 86 | 1006.4 |
| 20260507174602 | 52 | 5 | 2.6 | 11.3 | 0.14 | 0.14 | 0.14 | 83 | 1006.4 |
| 20260507173125 | 52 | 17 | 5.2 | 13.0 | 0.14 | 0.14 | 0.14 | 82 | 1005.7 |
| 20260507171547 | 55 | 360 | 8.7 | 17.4 | 0.11 | 0.11 | 0.11 | 76 | 1005.6 |
| 20260507170044 | 61 | 346 | 7.8 | 21.7 | 0.02 | 0.02 | 0.02 | 67 | 1004.7 |
| 20260507164542 | 64 | 337 | 7.8 | 13.0 | 0.00 | 0.00 | 0.00 | 57 | 1003.7 |
| 20260507163042 | 68 | 5 | 7.8 | 14.8 | 0.00 | 0.00 | 0.00 | 51 | 1002.7 |
| 20260507161548 | 71 | 184 | 4.3 | 9.6 | 0.00 | 0.00 | 0.00 | 43 | 1002.4 |
| 20260507160047 | 74 | 178 | 4.3 | 7.8 | 0.00 | 0.00 | 0.00 | 42 | 1002.2 |
| 20260507154540 | 73 | 167 | 2.6 | 7.8 | 0.00 | 0.00 | 0.00 | 46 | 1002.0 |
| 20260507153039 | 73 | 175 | 4.3 | 9.6 | 0.00 | 0.00 | 0.00 | 48 | 1002.0 |
| 20260507151537 | 72 | 98 | 5.2 | 13.0 | 0.00 | 0.00 | 0.00 | 48 | 1002.0 |
| 20260507150040 | 72 | 133 | 4.3 | 10.4 | 0.00 | 0.00 | 0.00 | 46 | 1002.0 |
| 20260507144535 | 74 | 86 | 6.1 | 13.0 | 0.00 | 0.00 | 0.00 | 46 | 1002.0 |
| 20260507143043 | 75 | 188 | 3.5 | 12.2 | 0.00 | 0.00 | 0.00 | 46 | 1002.2 |
| 20260507141546 | 74 | 154 | 4.3 | 11.3 | 0.00 | 0.00 | 0.00 | 46 | 1002.1 |
| 20260507140034 | 73 | 169 | 5.2 | 10.4 | 0.00 | 0.00 | 0.00 | 48 | 1002.2 |
| 20260507134534 | 73 | 146 | 6.1 | 11.3 | 0.00 | 0.00 | 0.00 | 49 | 1002.2 |
| 20260507133052 | 73 | 146 | 4.3 | 13.9 | 0.00 | 0.00 | 0.00 | 46 | 1002.5 |
| 20260507131533 | 75 | 168 | 5.2 | 10.4 | 0.00 | 0.00 | 0.00 | 40 | 1002.7 |
| 20260507130034 | 74 | 173 | 4.3 | 9.6 | 0.00 | 0.00 | 0.00 | 43 | 1002.8 |
| 20260507124528 | 73 | 134 | 5.2 | 8.7 | 0.00 | 0.00 | 0.00 | 44 | 1003.0 |
| 20260507123036 | 70 | 142 | 6.1 | 10.4 | 0.00 | 0.00 | 0.00 | 46 | 1003.2 |
| 20260507121526 | 70 | 150 | 6.1 | 10.4 | 0.00 | 0.00 | 0.00 | 45 | 1003.3 |
| 20260507120025 | 72 | 94 | 4.3 | 9.6 | 0.00 | 0.00 | 0.00 | 43 | 1003.4 |
| 20260507114524 | 74 | 92 | 2.6 | 8.7 | 0.00 | 0.00 | 0.00 | 38 | 1003.5 |
| 20260507113023 | 73 | 209 | 2.6 | 7.0 | 0.00 | 0.00 | 0.00 | 42 | 1003.6 |
| 20260507111523 | 73 | 166 | 3.5 | 9.6 | 0.00 | 0.00 | 0.00 | 41 | 1003.7 |
| 20260507110021 | 74 | 79 | 5.2 | 8.7 | 0.00 | 0.00 | 0.00 | 40 | 1003.8 |
| 20260507104518 | 73 | 175 | 3.5 | 8.7 | 0.00 | 0.00 | 0.00 | 45 | 1003.9 |
| 20260507103015 | 72 | 341 | 1.7 | 6.1 | 0.00 | 0.00 | 0.00 | 43 | 1004.1 |
| 20260507101512 | 72 | 175 | 1.7 | 6.1 | 0.00 | 0.00 | 0.00 | 50 | 1004.2 |
| 20260507100009 | 71 | 177 | 2.6 | 7.0 | 0.00 | 0.00 | 0.00 | 51 | 1004.3 |
| 20260507094507 | 71 | 181 | 2.6 | 5.2 | 0.00 | 0.00 | 0.00 | 52 | 1004.5 |
| 20260507093005 | 70 | 55 | 1.7 | 7.0 | 0.00 | 0.00 | 0.00 | 54 | 1004.5 |
| 20260507091503 | 69 | 99 | 3.5 | 7.8 | 0.00 | 0.00 | 0.00 | 55 | 1004.6 |
| 20260507090105 | 68 | 192 | 2.6 | 7.0 | 0.00 | 0.00 | 0.00 | 55 | 1004.6 |
| 20260507084558 | 66 | 113 | 1.7 | 7.0 | 0.00 | 0.00 | 0.00 | 59 | 1004.6 |
| 20260507083048 | 64 | 71 | 1.7 | 5.2 | 0.00 | 0.00 | 0.00 | 67 | 1004.6 |
| 20260507081544 | 62 | 5 | 0.9 | 3.5 | 0.00 | 0.00 | 0.00 | 69 | 1004.4 |
| 20260507080040 | 62 | 136 | 0.9 | 3.5 | 0.00 | 0.00 | 0.00 | 73 | 1004.5 |
| 20260507074537 | 61 | 146 | 0.9 | 1.7 | 0.00 | 0.00 | 0.00 | 75 | 1004.5 |
| 20260507073034 | 60 | 146 | 0.0 | 1.7 | 0.00 | 0.00 | 0.00 | 76 | 1004.3 |
| 20260507071534 | 59 | 134 | 0.0 | 1.7 | 0.00 | 0.00 | 0.00 | 78 | 1004.2 |
| 20260507070041 | 58 | 126 | 0.9 | 2.6 | 0.00 | 0.00 | 0.00 | 80 | 1004.0 |
| 20260507064528 | 57 | 5 | 0.0 | 1.7 | 0.00 | 0.00 | 0.00 | 82 | 1003.8 |
| 20260507063028 | 57 | 5 | 0.0 | 2.6 | 0.00 | 0.00 | 0.00 | 82 | 1003.9 |
| 20260507061526 | 56 | 344 | 0.0 | 1.7 | 0.00 | 0.00 | 0.00 | 82 | 1003.9 |
| 20260507060030 | 56 | 327 | 0.0 | 1.7 | 0.00 | 0.00 | 0.00 | 82 | 1003.7 |
| 20260507054523 | 55 | 306 | 0.0 | 1.7 | 0.00 | 0.00 | 0.00 | 82 | 1003.6 |
| 20260507053022 | 55 | 306 | 0.0 | 0.9 | 0.00 | 0.00 | 0.00 | 81 | 1003.5 |
| 20260507051520 | 55 | 125 | 0.0 | 0.9 | 0.00 | 0.00 | 0.00 | 81 | 1003.5 |
| 20260507050026 | 55 | 355 | 0.0 | 1.7 | 0.00 | 0.00 | 0.00 | 80 | 1003.2 |
| 20260507044516 | 56 | 355 | 0.9 | 2.6 | 0.00 | 0.00 | 0.00 | 79 | 1003.0 |
| 20260507043014 | 56 | 348 | 0.0 | 1.7 | 0.00 | 0.00 | 0.00 | 78 | 1002.9 |
| 20260507041513 | 56 | 347 | 0.0 | 3.5 | 0.00 | 0.00 | 0.00 | 77 | 1002.8 |
| 20260507040010 | 56 | 344 | 0.9 | 2.6 | 0.00 | 0.00 | 0.00 | 77 | 1002.8 |
| 20260507034510 | 56 | 344 | 0.0 | 3.5 | 0.00 | 0.00 | 0.00 | 76 | 1002.5 |
| 20260507033010 | 57 | 171 | 0.0 | 5.2 | 0.00 | 0.00 | 0.00 | 77 | 1002.6 |
| 20260507031506 | 57 | 144 | 3.5 | 6.1 | 0.00 | 0.00 | 0.00 | 76 | 1002.2 |
| 20260507030005 | 57 | 130 | 2.6 | 5.2 | 0.00 | 0.00 | 0.00 | 75 | 1002.4 |
| 20260507024507 | 58 | 162 | 2.6 | 8.7 | 0.00 | 0.00 | 0.00 | 74 | 1002.3 |
| 20260507023002 | 57 | 134 | 5.2 | 8.7 | 0.00 | 0.00 | 0.00 | 74 | 1002.2 |
| 20260507021601 | 57 | 148 | 0.9 | 3.5 | 0.00 | 0.00 | 0.00 | 75 | 1002.4 |
| 20260507014605 | 58 | 160 | 1.7 | 5.2 | 0.00 | 0.00 | 0.00 | 76 | 1002.5 |
| 20260507013102 | 58 | 184 | 2.6 | 6.1 | 0.00 | 0.00 | 0.00 | 76 | 1002.4 |
| 20260507011558 | 58 | 168 | 4.3 | 6.1 | 0.00 | 0.00 | 0.00 | 76 | 1002.4 |
| 20260507010053 | 58 | 136 | 2.6 | 6.1 | 0.00 | 0.00 | 0.00 | 75 | 1002.4 |
| 20260507004552 | 59 | 168 | 4.3 | 8.7 | 0.00 | 0.00 | 0.00 | 75 | 1002.4 |
| 20260507003050 | 59 | 175 | 2.6 | 8.7 | 0.00 | 0.00 | 0.00 | 74 | 1002.3 |
| 20260507001549 | 59 | 205 | 2.6 | 8.7 | 0.00 | 0.00 | 0.00 | 74 | 1002.3 |
| 20260507000048 | 59 | 213 | 5.2 | 10.4 | 0.00 | 0.00 | 0.00 | 73 | 1002.4 |
| 20260506234553 | 59 | 192 | 4.3 | 8.7 | 0.00 | 0.00 | 0.00 | 74 | 1002.4 |
| 20260506233049 | 59 | 179 | 5.2 | 10.4 | 0.00 | 0.00 | 0.00 | 75 | 1002.3 |
| 20260506231544 | 59 | 189 | 3.5 | 7.8 | 0.00 | 0.00 | 0.00 | 74 | 1002.5 |
| 20260506230035 | 59 | 204 | 1.7 | 4.3 | 0.00 | 0.00 | 0.00 | 74 | 1002.7 |
| 20260506224534 | 59 | 184 | 0.0 | 4.3 | 0.00 | 0.00 | 0.00 | 74 | 1002.6 |
| 20260506223029 | 59 | 242 | 1.7 | 4.3 | 0.00 | 0.00 | 0.00 | 74 | 1002.4 |
| 20260506221527 | 59 | 192 | 1.7 | 4.3 | 0.00 | 0.00 | 0.00 | 75 | 1002.3 |
| 20260506220025 | 59 | 199 | 1.7 | 3.5 | 0.00 | 0.00 | 0.00 | 75 | 1002.1 |
| 20260506214525 | 59 | 246 | 1.7 | 3.5 | 0.00 | 0.00 | 0.00 | 75 | 1002.0 |
| 20260506213024 | 59 | 241 | 2.6 | 6.1 | 0.00 | 0.00 | 0.00 | 75 | 1002.0 |
| 20260506211525 | 59 | 232 | 0.9 | 3.5 | 0.00 | 0.00 | 0.00 | 76 | 1002.1 |
| 20260506210028 | 59 | 175 | 0.0 | 3.5 | 0.00 | 0.00 | 0.00 | 75 | 1001.9 |
| 20260506204522 | 59 | 190 | 1.7 | 3.5 | 0.00 | 0.00 | 0.00 | 75 | 1001.9 |
| 20260506203032 | 60 | 198 | 1.7 | 4.3 | 0.00 | 0.00 | 0.00 | 74 | 1001.8 |
| 20260506201521 | 60 | 195 | 1.7 | 5.2 | 0.00 | 0.00 | 0.00 | 73 | 1001.8 |